Regional Weather Roundup
Issued by NWS

Home | Current Version | Previous Version | Graphics & Text | Print | Product List | Glossary On
Versions: 1 2 3 4 5 6 7 8 9 10 11 12 13 14 15 16 17 18 19 20 21 22 23 24 25 26 27 28 29 30 31 32 33 34 35 36 37 38 39 40 41 42 43 44 45 46 47 48 49 50
000
ASUS43 KDTX 240301
RWRMI
MICHIGAN HOURLY REGIONAL WEATHER ROUNDUP
NATIONAL WEATHER SERVICE DETROIT/PONTIAC MI
1100 PM EDT THU OCT 23 2014

NOTE: "FAIR" INDICATES FEW OR NO CLOUDS BELOW 12,000 FEET WITH NO
SIGNIFICANT WEATHER AND/OR OBSTRUCTION TO VISIBILITY.

MIZ047>049-052>055-059>063-066>070-074>076-081>083-240400-
SOUTHEAST LOWER MICHIGAN

CITY           SKY/WX    TMP DP  RH WIND       PRES   REMARKS
ADRIAN         PTCLDY    39  35  86 NW3       30.12S
ALMA           PTCLDY    38  37  94 CALM      30.09F
ANN ARBOR      PTCLDY    35  33  92 CALM      30.10S
BAD AXE        CLOUDY    30  30 100 CALM      30.11F FOG
CARO           FOG       32  31  98 CALM      30.10F VSB 1/2
DETROIT CITY   CLEAR     45  39  79 CALM      30.11F
DETROIT        MOCLDY    45  38  76 CALM      30.11F
FLINT          CLEAR     38  34  85 CALM      30.11S
GROSSE ILE     CLEAR     43  39  87 CALM      30.09F
HILLSDALE      PTCLDY    37  36  96 CALM      30.10F
HOWELL         PTCLDY    38  36  91 CALM      30.10S

CITY           SKY/WX    TMP DP  RH WIND       PRES   REMARKS
JACKSON        MOCLDY    38  35  89 CALM      30.11S
LAMBERTVILLE   PTCLDY    41  37  87 CALM      30.11S
LANSING        CLOUDY    43  36  76 SE3       30.10F
LAPEER         FAIR      32  32  99 CALM      30.10F
MASON          CLOUDY    38  37  93 CALM      30.10F
MONROE         PTCLDY    37  37 100 CALM      30.09F
MT. CLEMENS    CLEAR     40  40  99 CALM      30.08F
PONTIAC        PTCLDY    39  35  86 CALM      30.08F
PORT HOPE        N/A     37  35  92 S3        30.09S
PORT HURON     FOG       34  34 100 CALM      30.11F VSB 1/2
TRI CITIES     CLEAR     40  34  79 CALM      30.10F
TROY           CLEAR     44  38  79 CALM      30.12S
SAGINAW HB     CLEAR     36  36 100 CALM      30.10S FOG
$$
MIZ043>046-050>051-056>058-064>065-071>073-077>080-240400-
SOUTHWEST LOWER MICHIGAN

CITY           SKY/WX    TMP DP  RH WIND       PRES   REMARKS
BATTLE CREEK   MOCLDY    44  38  79 S3        30.11S
BENTON HARBOR  MOCLDY    46  40  79 SE3       30.10S
BIG RAPIDS     LGT RAIN  44  44 100 CALM      30.08F
COLDWATER      PTCLDY    38  37  95 MISG      30.11S
FREMONT        CLOUDY    48  43  82 CALM      30.08S
HOLLAND        CLOUDY    49  43  80 CALM      30.10S
GRAND RAPIDS   CLOUDY    49  40  71 SW3       30.10S
IONIA          FAIR      47  39  74 S5        30.09S
KALAMAZOO      MOCLDY    45  40  82 CALM      30.11S
LUDINGTON      CLOUDY    49  45  84 S5        30.07F
MARSHALL       MOCLDY    37  35  90 CALM      30.10F
MOUNT PLEASANT PTCLDY    37  36  94 CALM      30.08F
MUSKEGON       CLOUDY    50  44  80 SE5       30.09F
SOUTH HAVEN    CLOUDY    48  43  84 S3        30.10S
$$
MIZ016>042-240400-
NORTHERN LOWER MICHIGAN

CITY           SKY/WX    TMP DP  RH WIND       PRES   REMARKS
ALPENA         CLEAR     30  29  96 CALM      30.08F
BEAVER ISLAND  CLOUDY    47  45  94 CALM      30.05F
BELLAIRE       CLOUDY    42  39  88 CALM      30.07F
CADILLAC       MOCLDY    45  41  86 SW3       30.07S
CHARLEVOIX     MOCLDY    46  42  84 S3        30.08F
FRANKFORT      CLOUDY    51  43  74 SE5       30.06F
GAYLORD        MOCLDY    39  35  86 S6        30.07F WCI  35
GRAYLING       PTCLDY    34  33  97 CALM      30.08F
HARBOR SPRINGS CLOUDY    42  39  87 CALM      30.06F
HOUGHTON LAKE  PTCLDY    31  30  96 CALM      30.08F
OSCODA         CLEAR     32  31  96 CALM      30.09F
PELLSTON       CLOUDY    37  36  96 CALM      30.07F
TRAVERSE CITY  CLOUDY    47  40  76 SE3       30.06F
$$
MIZ007>008-015-240400-
EASTERN UPPER MICHIGAN

CITY           SKY/WX    TMP DP  RH WIND       PRES   REMARKS
KINROSS        PTCLDY    39  39 100 SE6       30.07S WCI  35
MACKINAC ISLAN MOCLDY    45  44  95 SE7       30.06S
NEWBERRY       CLOUDY    47  43  85 SW9       30.02F
S. S. MARIE    PTCLDY    41  37  86 E3        30.07S
$$
MIZ004>006-011>014-085-240400-
CENTRAL UPPER MICHIGAN

CITY           SKY/WX    TMP DP  RH WIND       PRES   REMARKS
MANISTIQUE     CLOUDY    50  47  91 SW8       30.03S
ESCANABA       CLOUDY    48  45  87 SW6       30.02F
MENOMINEE      CLOUDY    48  45  87 SW5       30.03F
SAWYER-GWINN   CLOUDY    46  44  95 S8        29.99F FOG
$$
MIZ001>003-009>011-084-240400-
WESTERN UPPER MICHIGAN

CITY           SKY/WX    TMP DP  RH WIND       PRES   REMARKS
IRON MOUNTAIN  CLOUDY    45  44  97 SW5       29.99F FOG
HOUGHTON       FOG       47  45  93 SW5       29.96S VSB 1
COPPER HARBOR    N/A     48  46  93 SW7       29.96S
IRONWOOD       CLOUDY    46  45  93 S5        29.95S
$$

ABBREVIATIONS USED IN REMARKS
   TC - TEMPERATURE IN CELSIUS
  WCI - WIND CHILL INDEX
   HX - HEAT INDEX
  VSB - VISIBILITY




USA.gov is the U.S. government's official web portal to all federal, state and local government web resources and services.